Weather History for KPGA - June, 2013

Change the Weather History Date:

Wednesday, June 19, 2013

  Actual Average Record
Temperature  
Mean Temperature 82 °F -  
Max Temperature 95 °F 92 °F 101 °F (1985)
Min Temperature 68 °F 63 °F 48 °F (1979)
Cooling Degree Days 16    
Growing Degree Days 32 (Base 50)    
Moisture  
Dew Point 11 °F    
Average Humidity 7    
Maximum Humidity 13    
Minimum Humidity 4    
Precipitation  
Precipitation 0.00 in - - ()
Sea Level Pressure  
Sea Level Pressure 29.59 in    
Wind  
Wind Speed 6 mph (SW)    
Max Wind Speed 16 mph    
Max Gust Speed 25 mph    
Visibility 10 miles    
Events      
Averages and records for this station are not official NWS values.
T = Trace of Precipitation, MM = Missing Value Source: NWS Daily Summary

Daily Weather History Graph

Daily Weather History Graph

Search for Another Location

Airport or City:

Trip Planner

Search our weather history database for the weather conditions in past years. The results will help you decide how hot, cold, wet, or windy it might be!

Date:

Astronomy

Jun. 19, 2013 Rise Set
Actual Time 5:06 AM MST 7:48 PM MST
Civil Twilight 4:35 AM MST 8:18 PM MST
Nautical Twilight 3:57 AM MST 8:57 PM MST
Astronomical Twilight 3:13 AM MST 9:40 PM MST
Moon 3:48 PM MST (6/19) 1:48 AM MST (6/19)
Length of Visible Light 15h 43m
Length of Day
14h 41m
Waxing Gibbous, 81% of the Moon is Illuminated
Jun 19
Waxing Gibbous
Jun 23
Full
Jun 29
Last Quarter
Jul 8
New
Jul 15
First Quarter

Hourly Weather History & Observations

Time (MST) Temp. Dew Point Humidity Pressure Visibility Wind Dir Wind Speed Gust Speed Precip Events Conditions
12:53 AM 78.1 °F 12.0 °F 8% 29.59 in 10.0 mi Calm Calm - N/A   Clear
1:53 AM 78.1 °F 15.1 °F 9% 29.58 in 10.0 mi Calm Calm - N/A   Clear
2:53 AM 75.0 °F 16.0 °F 11% 29.58 in 10.0 mi South 4.6 mph - N/A   Clear
3:53 AM 70.0 °F 14.0 °F 12% 29.59 in 10.0 mi SE 3.5 mph - N/A   Clear
4:53 AM 70.0 °F 17.1 °F 13% 29.60 in 10.0 mi SSW 3.5 mph - N/A   Clear
5:53 AM 73.0 °F 18.0 °F 12% 29.61 in 10.0 mi SSW 3.5 mph - N/A   Clear
6:53 AM 77.0 °F 19.0 °F 11% 29.62 in 10.0 mi SSW 4.6 mph - N/A   Clear
7:53 AM 82.0 °F 18.0 °F 9% 29.60 in 10.0 mi South 9.2 mph - N/A   Clear
8:53 AM 84.9 °F 14.0 °F 7% 29.60 in 10.0 mi South 11.5 mph 21.9 mph N/A   Clear
9:53 AM 87.1 °F 12.0 °F 6% 29.59 in 10.0 mi SSW 16.1 mph 24.2 mph N/A   Clear
10:53 AM 90.0 °F 8.1 °F 5% 29.59 in 10.0 mi SSW 12.7 mph 23.0 mph N/A   Clear
11:53 AM 91.9 °F 7.0 °F 4% 29.58 in 10.0 mi South 12.7 mph 23.0 mph N/A   Clear
12:53 PM 91.9 °F 8.1 °F 4% 29.57 in 10.0 mi Variable 5.8 mph 25.3 mph N/A   Clear
1:53 PM 95.0 °F 10.9 °F 4% 29.55 in 10.0 mi SW 10.4 mph 17.3 mph N/A   Clear
2:53 PM 93.9 °F 12.9 °F 5% 29.54 in 10.0 mi Variable 6.9 mph 17.3 mph N/A   Clear
3:53 PM 93.9 °F 12.9 °F 5% 29.54 in 10.0 mi WSW 12.7 mph 20.7 mph N/A   Clear
4:53 PM 95.0 °F 14.0 °F 5% 29.53 in 10.0 mi WSW 13.8 mph 21.9 mph N/A   Clear
5:53 PM 93.0 °F 7.0 °F 4% 29.54 in 10.0 mi West 11.5 mph 23.0 mph N/A   Clear
6:53 PM 89.1 °F 1.9 °F 4% 29.55 in 10.0 mi West 12.7 mph 25.3 mph N/A   Clear
7:53 PM 86.0 °F 1.9 °F 4% 29.57 in 10.0 mi WNW 12.7 mph 20.7 mph N/A   Clear
8:53 PM 84.0 °F 5.0 °F 5% 29.60 in 10.0 mi Variable 4.6 mph 16.1 mph N/A   Clear
9:53 PM 82.0 °F 7.0 °F 6% 29.62 in 10.0 mi West 8.1 mph - N/A   Clear
10:53 PM 81.0 °F 7.0 °F 6% 29.62 in 10.0 mi West 5.8 mph - N/A   Clear
11:53 PM 78.1 °F 8.1 °F 7% 29.63 in 10.0 mi WSW 3.5 mph - N/A   Clear